Bluefield, WV

3:19 AM EST on December 09, 2016 (GMT -0500)
Mercer County

Weather History for KBLF - April, 2013

Change the Weather History Date:

Thursday, April 25, 2013

  Actual Average Record
Temperature  
Mean Temperature 49 °F 58 °F  
Max Temperature 60 °F 68 °F 85 °F (2009)
Min Temperature 37 °F 48 °F 30 °F (1967)
Degree Days  
Heating Degree Days 16 8  
Month to date heating degree days 236 284  
Since 1 July heating degree days 4491 4393  
Cooling Degree Days 0 1  
Month to date cooling degree days 26 23  
Year to date cooling degree days 27 27  
Moisture  
Dew Point 28 °F    
Average Humidity 47    
Maximum Humidity 76    
Minimum Humidity 17    
Precipitation  
Precipitation T in 0.12 in 1.34 in (1978)
Month to date precipitation 3.99 2.75  
Year to date precipitation 15.08 11.92  
Snow  
Snow 0.00 in - - ()
Month to date snowfall 0.9  
Since 1 July snowfall 56.0  
Snow Depth 0.00 in    
Sea Level Pressure  
Sea Level Pressure 30.24 in    
Wind  
Wind Speed 6 mph (NW)    
Max Wind Speed 17 mph    
Max Gust Speed 24 mph    
Visibility 10 miles    
Events Rain    
T = Trace of Precipitation, MM = Missing Value Source: NWS Daily Summary

Daily Weather History Graph

Daily Weather History Graph

Search for Another Location

Airport or City:

Trip Planner

Search our weather history database for the weather conditions in past years. The results will help you decide how hot, cold, wet, or windy it might be!

Date:

Astronomy

Apr. 25, 2013 Rise Set
Actual Time 6:36 AM EDT 8:09 PM EDT
Civil Twilight 6:09 AM EDT 8:36 PM EDT
Nautical Twilight 5:36 AM EDT 9:10 PM EDT
Astronomical Twilight 5:01 AM EDT 9:45 PM EDT
Moon 8:20 PM EDT (4/25) 6:18 AM EDT (4/25)
Length of Visible Light 14h 27m
Length of Day
13h 32m
Full, 100% of the Moon is Illuminated
Apr 25
Full
Apr 25
Full
May 2
Last Quarter
May 9
New
May 18
First Quarter

Hourly Weather History & Observations

Time (EDT) Temp. Windchill Dew Point Humidity Pressure Visibility Wind Dir Wind Speed Gust Speed Precip Events Conditions
12:27 AM 41.0 °F 36.4 °F 37.4 °F 87% 30.20 in 7.0 mi NNW 6.9 mph - 0.00 in Rain Light Rain
12:52 AM 39.9 °F 31.8 °F 36.0 °F 86% 30.15 in 8.0 mi NW 15.0 mph 18.4 mph 0.01 in Rain Light Rain
1:03 AM 39.2 °F 33.0 °F 35.6 °F 87% 30.20 in 10.0 mi NW 9.2 mph 17.3 mph 0.00 in   Overcast
1:24 AM 39.2 °F 33.0 °F 35.6 °F 87% 30.19 in 10.0 mi WNW 9.2 mph - 0.00 in   Overcast
1:50 AM 39.2 °F 33.0 °F 35.6 °F 87% 30.19 in 10.0 mi WNW 9.2 mph - 0.00 in   Overcast
1:52 AM 39.9 °F 34.5 °F 35.1 °F 83% 30.14 in 10.0 mi WNW 8.1 mph - 0.00 in   Overcast
2:08 AM 39.2 °F 33.6 °F 35.6 °F 87% 30.19 in 10.0 mi NW 8.1 mph - N/A   Overcast
2:16 AM 39.2 °F 32.0 °F 35.6 °F 87% 30.19 in 10.0 mi NW 11.5 mph - N/A   Overcast
2:52 AM 39.0 °F 33.4 °F 32.0 °F 76% 30.14 in 10.0 mi WNW 8.1 mph 18.4 mph N/A   Overcast
3:52 AM 37.9 °F 32.7 °F 30.0 °F 73% 30.16 in 10.0 mi NW 6.9 mph - N/A   Mostly Cloudy
4:52 AM 37.9 °F 32.7 °F 28.9 °F 70% 30.19 in 10.0 mi NW 6.9 mph - N/A   Overcast
5:52 AM 37.0 °F - 28.9 °F 73% 30.19 in 10.0 mi Calm Calm - N/A   Overcast
6:52 AM 37.0 °F 34.5 °F 28.0 °F 70% 30.20 in 10.0 mi North 3.5 mph - N/A   Overcast
7:52 AM 37.0 °F 34.5 °F 28.0 °F 70% 30.23 in 10.0 mi NW 3.5 mph - N/A   Overcast
8:52 AM 39.0 °F 35.7 °F 28.0 °F 65% 30.27 in 10.0 mi North 4.6 mph - N/A   Overcast
9:52 AM 42.1 °F 39.2 °F 28.9 °F 60% 30.27 in 10.0 mi NNE 4.6 mph - N/A   Mostly Cloudy
9:59 AM 42.8 °F 40.1 °F 28.4 °F 57% 30.28 in 10.0 mi NNE 4.6 mph - N/A   Partly Cloudy
10:36 AM 42.8 °F 39.3 °F 28.4 °F 57% 30.30 in 10.0 mi NW 5.8 mph - N/A   Mostly Cloudy
10:52 AM 44.1 °F 41.5 °F 28.0 °F 53% 30.30 in 10.0 mi Variable 4.6 mph - N/A   Scattered Clouds
11:52 AM 46.9 °F - 30.9 °F 54% 30.30 in 10.0 mi SW 5.8 mph - N/A   Clear
12:52 PM 50.0 °F - 28.9 °F 44% 30.30 in 10.0 mi Variable 4.6 mph - N/A   Clear
1:52 PM 53.1 °F - 30.0 °F 41% 30.27 in 10.0 mi WNW 6.9 mph - N/A   Clear
2:52 PM 57.0 °F - 25.0 °F 29% 30.27 in 10.0 mi West 12.7 mph - N/A   Clear
3:52 PM 59.0 °F - 21.9 °F 24% 30.25 in 10.0 mi NW 8.1 mph - N/A   Clear
4:52 PM 60.1 °F - 19.9 °F 21% 30.23 in 10.0 mi Variable 6.9 mph 16.1 mph N/A   Clear
5:52 PM 60.1 °F - 15.1 °F 17% 30.23 in 10.0 mi WNW 11.5 mph 24.2 mph N/A   Clear
6:52 PM 57.9 °F - 14.0 °F 18% 30.25 in 10.0 mi NW 10.4 mph - N/A   Clear
7:52 PM 55.0 °F - 16.0 °F 22% 30.27 in 10.0 mi NW 10.4 mph 17.3 mph N/A   Clear
8:52 PM 52.0 °F - 21.0 °F 30% 30.31 in 10.0 mi NW 4.6 mph - N/A   Clear
9:52 PM 50.0 °F - 24.1 °F 36% 30.33 in 10.0 mi West 3.5 mph - N/A   Clear
10:52 PM 46.9 °F - 25.0 °F 42% 30.34 in 10.0 mi West 3.5 mph - N/A   Clear
11:52 PM 46.9 °F - 24.1 °F 41% 30.34 in 10.0 mi West 4.6 mph - N/A   Clear